Date,TemperatureHighF,TemperatureAvgF,TemperatureLowF,DewpointHighF,DewpointAvgF,DewpointLowF,HumidityHigh,HumidityAvg,HumidityLow,PressureMaxIn,PressureMinIn,WindSpeedMaxMPH,WindSpeedAvgMPH,GustSpeedMaxMPH,PrecipitationSumIn
2013-1-1,34.5,32.6,31.4,22.0,18.9,16.1,63,55,51,30.47,30.36,23,17,45,0.04
2013-1-2,35.4,33.4,32.2,18.5,17.4,16.3,53,51,48,30.39,30.24,28,19,48,0.00
2013-1-3,35.0,33.2,32.2,29.1,17.6,14.7,79,53,45,30.30,30.15,24,16,42,0.00
2013-1-4,41.9,36.2,32.5,33.7,27.4,18.2,87,71,52,30.39,30.18,22,8,39,0.08
2013-1-5,36.9,34.1,32.7,26.7,23.5,20.0,73,65,59,30.27,30.15,22,12,42,0.00
2013-1-6,42.4,38.8,35.5,38.9,33.7,26.5,89,82,66,30.27,30.09,2,0,7,0.17
2013-1-7,52.2,47.5,41.0,48.8,43.8,37.9,97,87,81,30.24,30.00,15,4,24,0.20
2013-1-8,54.8,50.8,46.0,48.2,44.7,42.1,94,80,68,30.24,29.94,16,6,33,0.21
2013-1-9,51.8,44.3,37.4,42.7,37.1,32.3,84,76,60,30.00,29.71,15,5,26,0.33
2013-1-10,39.7,37.8,35.6,34.9,33.2,31.5,88,83,76,30.12,29.97,7,0,10,0.21
2013-1-11,39.0,34.9,29.8,32.7,29.0,24.2,90,79,58,30.33,30.09,2,0,5,0.00
2013-1-12,37.4,31.2,28.0,27.8,25.9,23.7,88,79,58,30.45,30.30,2,0,7,0.00
2013-1-13,34.0,30.1,27.3,26.6,23.4,21.0,84,74,61,30.50,30.39,5,0,8,0.00
2013-1-14,34.0,32.0,29.1,30.7,26.7,23.9,88,80,74,30.59,30.50,5,0,6,0.04
2013-1-15,39.4,36.4,34.0,34.7,32.6,30.7,91,86,79,30.65,30.56,3,0,6,0.04
2013-1-16,37.6,36.3,34.3,33.3,32.5,29.5,88,86,82,30.65,30.50,5,0,9,0.00
2013-1-17,39.4,35.2,32.2,29.5,24.4,21.2,88,65,51,30.50,30.33,10,4,22,0.00
2013-1-18,43.4,35.9,31.2,27.1,25.0,21.3,76,64,51,30.36,30.27,8,2,17,0.00
2013-1-19,41.5,35.8,32.2,27.9,24.8,21.9,79,65,50,30.39,30.27,14,5,27,0.00
2013-1-20,38.1,33.7,31.2,23.6,21.1,19.2,68,59,47,30.39,30.24,23,11,43,0.05
2013-1-21,39.4,33.4,30.2,21.2,19.3,17.2,65,55,42,30.33,30.15,25,10,39,0.00
2013-1-22,35.1,32.0,30.0,20.0,18.6,16.9,60,55,48,30.18,29.94,27,17,49,0.04
2013-1-23,35.1,32.9,30.7,31.2,22.9,16.9,86,65,51,30.24,29.91,25,10,50,0.21
2013-1-24,45.5,39.8,33.4,39.5,34.4,30.5,91,82,65,30.27,30.12,12,1,20,0.41
2013-1-25,46.9,42.5,39.4,45.0,40.3,37.0,96,92,88,30.18,29.97,0,0,2,0.29
2013-1-26,47.3,42.6,40.3,41.8,38.7,35.8,96,86,76,30.12,29.97,10,1,14,0.08
2013-1-27,45.4,41.5,40.1,38.9,36.9,35.8,88,84,75,30.18,30.03,9,3,14,0.21
2013-1-28,43.9,42.4,40.5,41.5,39.5,37.1,91,89,87,30.21,30.09,11,4,15,0.99
2013-1-29,47.5,45.3,43.0,45.3,43.0,40.6,96,92,84,30.50,30.21,12,6,16,0.33
2013-1-30,48.7,46.7,44.1,46.8,44.2,40.8,96,91,87,30.47,30.39,11,6,17,0.17
2013-1-31,52.1,48.6,45.3,48.5,45.6,44.3,98,90,77,30.47,30.33,4,0,8,0.00
2013-2-1,52.7,48.3,43.5,45.1,40.3,30.7,94,76,48,30.39,30.27,20,3,32,0.00
2013-2-2,54.0,48.1,40.5,35.1,32.0,29.9,75,54,44,30.33,30.24,20,10,39,0.00
2013-2-3,47.1,42.9,37.0,41.6,37.6,31.1,87,81,76,30.36,30.21,4,0,6,0.00
2013-2-4,52.3,46.5,41.4,41.9,39.2,37.2,88,76,59,30.24,29.94,3,0,6,0.00
2013-2-5,53.5,47.1,43.7,44.9,40.4,37.3,86,77,61,30.06,29.91,12,-4,21,0.21
2013-2-6,51.9,46.8,42.6,41.7,38.6,36.6,83,73,56,30.15,29.85,11,2,17,0.04
2013-2-7,48.7,42.7,36.1,37.4,33.9,30.0,83,72,51,30.15,29.91,9,-8,12,0.04
2013-2-8,43.5,37.5,33.1,34.3,30.9,28.7,86,77,67,30.30,30.15,4,-14,6,0.00
2013-2-9,44.6,39.4,34.9,38.0,33.7,28.9,84,80,75,30.30,30.27,3,-64,7,0.00
2013-2-10,45.0,42.4,42.1,39.1,38.7,37.2,88,87,74,30.36,30.33,0,0,0,0.00
2013-2-11,45.5,43.7,42.1,36.8,35.4,34.6,76,72,66,30.39,30.36,4,-45,6,0.00
2013-2-12,45.7,44.9,44.8,43.2,42.7,42.3,92,92,91,30.42,30.39,4,-47,6,0.04
2013-2-13,48.7,48.5,48.2,42.9,42.3,41.8,80,79,78,30.45,30.39,7,-36,10,0.00
2013-2-14,41.7,41.4,41.0,38.7,38.3,37.7,89,89,88,30.53,30.50,0,0,0,0.00
2013-2-15,51.8,47.1,41.0,38.3,36.7,35.5,88,68,54,30.39,30.36,14,8,24,0.00
2013-2-16,53.1,49.7,45.1,46.0,42.7,37.0,81,77,71,30.24,30.21,6,-35,10,0.17
2013-2-17,45.1,41.0,38.5,40.0,34.1,31.3,89,77,59,30.30,30.15,1,0,4,0.00
2013-2-18,47.3,44.3,41.5,34.6,34.0,31.8,76,67,55,30.03,30.00,2,0,7,0.00
2013-2-19,51.3,48.8,44.8,29.7,28.8,26.8,55,46,40,29.88,29.83,8,-41,11,0.04
2013-2-21,41.7,41.5,41.2,36.0,35.3,34.9,80,78,78,30.15,30.12,7,3,15,0.08
2013-2-22,46.0,45.7,45.3,40.1,39.2,37.5,81,78,74,30.03,29.94,14,8,32,0.17
2013-2-23,47.3,45.6,43.5,37.2,35.0,31.4,72,66,59,30.33,30.27,10,-42,14,0.25
2013-2-24,45.5,44.1,43.5,33.8,32.2,29.8,68,63,54,30.18,30.12,4,1,6,0.00
2013-2-25,48.0,46.4,42.8,38.2,34.0,30.2,72,62,52,30.30,30.21,4,1,12,0.25
2013-2-26,48.7,43.3,38.1,36.9,34.4,30.9,84,71,50,30.42,30.27,2,-30,5,0.00
2013-2-27,53.2,47.5,43.0,42.2,37.1,34.2,82,67,51,30.33,30.24,7,0,9,0.00
2013-2-28,56.4,51.4,46.8,51.4,47.4,42.0,94,86,79,30.45,30.21,11,3,20,0.29
2013-3-1,61.0,56.7,53.1,49.1,47.2,44.6,80,71,55,30.47,30.30,9,2,15,0.00
2013-3-2,57.3,51.2,43.8,47.3,42.9,35.1,81,73,63,30.33,30.15,8,1,14,0.08
2013-3-3,51.8,43.3,35.6,36.8,30.9,26.1,83,63,39,30.33,30.24,5,0,9,0.00
2013-3-4,52.5,43.8,33.1,27.8,22.3,17.8,76,45,29,30.27,29.91,17,9,30,0.00
2013-3-5,45.5,42.8,40.6,35.7,27.2,18.4,82,56,34,29.94,29.65,15,7,27,0.21
2013-3-6,44.2,42.3,40.3,40.2,36.9,32.7,87,81,71,30.00,29.56,18,5,28,0.50
2013-3-7,54.3,45.0,36.7,38.9,31.2,25.7,87,61,36,30.06,29.97,5,1,10,0.00
2013-3-8,56.9,43.4,33.4,33.9,29.7,26.3,82,61,35,30.24,30.03,4,0,10,0.00
2013-3-9,56.2,44.0,33.1,37.9,30.3,26.7,78,60,36,30.50,30.21,6,0,8,0.00
2013-3-10,51.1,44.1,36.6,42.3,34.3,27.8,83,69,56,30.50,30.42,4,0,6,0.00
2013-3-11,54.5,50.0,46.0,47.8,44.9,41.8,89,83,70,30.42,30.24,4,0,6,0.00
2013-3-12,61.3,54.5,49.7,50.3,46.6,41.5,91,76,51,30.24,30.15,9,2,13,0.00
2013-3-13,64.4,55.2,48.0,46.2,42.9,39.9,82,65,44,30.27,30.09,5,0,8,0.00
2013-3-14,62.4,54.5,48.4,48.6,42.9,36.5,82,66,39,30.24,30.03,9,1,15,0.00
2013-3-15,65.1,57.2,52.2,48.0,43.4,38.1,76,61,37,30.24,30.15,6,1,10,0.00
2013-3-16,52.2,48.7,41.2,44.2,40.7,34.4,81,74,69,30.18,30.00,11,3,17,0.20
2013-3-17,51.6,43.4,38.7,36.7,33.6,29.3,81,69,44,30.30,30.12,11,4,14,0.09
2013-3-18,53.1,44.8,38.3,37.4,33.0,29.4,83,65,41,30.30,30.15,8,1,11,0.00
2013-3-19,50.8,44.8,40.6,40.2,29.7,24.0,81,57,39,30.18,29.71,19,10,32,0.33
2013-3-20,56.2,49.3,41.7,49.1,39.4,29.2,91,70,46,30.15,29.56,15,5,24,0.33
2013-3-21,49.6,42.5,39.2,38.7,32.6,27.0,79,68,49,30.30,30.15,11,4,16,0.08
2013-3-22,48.0,41.1,36.7,36.3,31.6,27.3,84,70,45,30.42,30.27,7,1,11,0.17
2013-3-23,49.6,41.3,35.4,35.1,29.3,23.7,88,65,37,30.42,30.27,5,0,8,0.00
2013-3-24,53.1,44.9,37.4,28.6,25.1,22.4,68,47,33,30.30,30.09,16,8,27,0.00
2013-3-25,58.5,51.3,44.6,28.8,24.6,20.6,43,35,28,30.12,29.91,14,8,26,0.00
2013-3-26,56.1,49.4,41.3,41.1,35.5,28.2,72,59,44,30.06,29.97,2,0,6,0.00
2013-3-27,64.4,53.1,41.2,46.8,39.0,34.3,81,62,34,30.00,29.91,11,1,15,0.08
2013-3-28,64.4,54.8,47.0,48.0,42.5,37.4,86,66,37,30.15,30.00,7,0,11,0.00
2013-3-29,68.7,58.0,50.2,47.1,42.7,38.2,77,58,35,30.21,30.15,4,0,9,0.00
2013-3-30,72.3,59.9,46.5,42.0,39.8,36.0,76,51,32,30.21,29.97,12,5,21,0.00
2013-3-31,73.9,62.7,50.9,43.6,37.8,31.6,56,40,30,30.03,29.91,10,3,19,0.00
2013-4-1,67.6,60.1,55.9,46.9,44.9,43.1,69,58,45,30.18,30.00,8,2,14,0.00
2013-4-2,64.4,57.5,51.4,46.5,43.6,41.1,72,61,44,30.24,30.12,5,0,8,0.00
2013-4-3,65.7,55.7,47.2,47.3,43.5,40.0,86,65,40,30.18,29.91,2,0,6,0.00
2013-4-4,61.9,57.3,54.8,54.5,48.4,44.6,82,72,64,29.94,29.68,14,2,24,0.25
2013-4-5,60.3,55.4,51.8,50.3,46.8,44.3,84,73,56,29.97,29.80,13,5,24,0.25
2013-4-6,56.9,51.7,46.0,47.6,44.6,40.1,84,77,61,30.03,29.77,11,3,18,0.62
2013-4-7,55.0,49.4,45.0,47.6,40.9,36.0,90,73,52,29.94,29.56,22,7,38,0.29
2013-4-8,54.8,48.7,43.3,45.1,40.5,37.3,83,74,54,30.30,29.94,6,1,9,0.04
2013-4-9,57.7,50.4,41.2,44.0,40.2,37.2,90,70,48,30.36,30.24,3,0,6,0.00
2013-4-10,60.3,54.2,47.7,50.6,41.6,32.4,81,63,45,30.36,30.12,15,3,26,0.13
2013-4-11,58.1,49.5,40.3,41.3,35.1,30.2,78,59,42,30.39,30.18,4,0,10,0.00
2013-4-12,56.8,47.3,37.9,43.4,36.2,29.9,83,66,45,30.18,29.85,13,1,23,0.17
2013-4-13,54.5,47.6,40.5,40.0,33.1,27.2,79,59,39,30.09,29.91,13,5,20,0.04
2013-4-14,55.7,45.8,42.4,44.0,37.0,31.6,82,72,50,30.09,29.91,9,2,17,0.25
2013-4-15,55.7,47.3,39.7,40.0,34.9,28.0,88,65,37,30.18,29.94,8,1,13,0.00
2013-4-16,57.9,48.3,42.7,40.4,35.7,30.0,83,64,35,30.42,30.15,10,1,18,0.04
2013-4-17,59.3,48.4,35.3,39.0,33.2,29.2,80,58,35,30.50,30.39,6,0,9,0.00
2013-4-18,61.0,53.2,47.3,45.2,36.7,33.1,77,54,40,30.50,30.33,4,0,11,0.04
2013-4-19,57.7,53.4,50.5,51.2,47.8,45.2,87,81,74,30.33,30.15,13,2,19,0.74
2013-4-20,61.5,54.0,48.9,46.1,41.5,35.6,87,64,40,30.36,30.27,7,1,12,0.05
2013-4-21,51.6,49.5,46.4,45.5,39.1,35.5,80,68,56,30.30,30.27,2,0,8,0.00
2013-4-22,64.6,52.2,39.2,41.1,31.5,22.9,89,52,23,30.45,30.30,9,2,15,0.00
2013-4-23,68.5,53.5,38.5,34.0,28.7,25.3,62,41,23,30.42,30.15,5,1,10,0.00
2013-4-24,73.7,59.2,41.6,32.5,29.3,24.8,60,35,21,30.27,30.03,10,2,15,0.00
2013-4-25,74.8,59.8,45.2,38.6,35.3,30.0,64,42,24,30.18,30.03,5,0,10,0.00
2013-4-26,75.7,61.2,46.4,47.0,37.7,31.7,73,46,21,30.27,30.15,4,0,9,0.00
2013-4-27,71.4,59.5,47.7,41.4,37.2,34.0,62,45,26,30.27,30.18,6,1,10,0.00
2013-4-28,68.4,59.7,52.5,48.7,41.1,30.6,80,53,25,30.27,30.09,10,3,19,0.04
2013-4-29,59.6,53.7,45.0,45.1,34.5,24.9,76,50,27,30.24,30.03,14,3,18,0.17
2013-4-30,58.4,49.8,43.0,35.2,29.7,25.3,65,47,31,30.45,30.21,7,1,14,0.00
2013-5-1,68.6,53.6,36.3,35.7,29.4,23.4,70,43,23,30.53,30.45,10,2,17,0.00
2013-5-2,78.3,65.1,54.9,35.2,27.4,20.6,29,24,21,30.50,30.24,16,6,29,0.00
2013-5-3,78.3,63.1,47.0,42.5,34.9,28.6,61,37,21,30.30,30.15,4,0,12,0.00
2013-5-4,80.7,67.1,48.6,42.7,35.1,26.1,71,35,17,30.15,29.91,12,4,23,0.00
2013-5-5,82.6,71.7,59.7,37.1,32.3,26.2,35,24,19,29.91,29.71,10,4,19,0.00
2013-5-6,82.1,67.8,54.1,45.2,41.1,35.3,57,39,23,29.91,29.74,5,1,11,0.00
2013-5-7,75.3,65.0,53.2,45.7,43.3,40.1,66,46,32,30.03,29.85,6,0,10,0.00
2013-5-8,68.5,59.6,51.1,47.7,45.3,42.5,75,60,44,30.15,30.03,5,0,8,0.00
2013-5-9,76.5,62.4,51.4,50.8,47.8,43.8,82,61,35,30.21,30.06,2,0,8,0.00
2013-5-10,82.7,68.5,53.6,52.1,48.3,40.1,78,52,23,30.21,30.09,4,0,7,0.00
2013-5-11,83.8,71.0,59.4,51.6,49.4,46.8,72,49,29,30.18,29.97,4,0,8,0.00
2013-5-12,73.1,65.1,60.5,60.5,54.9,50.1,83,70,47,30.15,30.06,9,0,13,0.08
2013-5-13,71.1,62.4,58.6,58.5,53.5,39.4,89,75,36,30.12,30.03,15,3,23,0.08
2013-5-19,66.8,59.6,49.8,47.4,42.7,39.4,76,55,36,30.45,30.33,3,0,9,0.37
2013-5-20,70.5,59.4,48.0,46.9,42.3,38.0,80,56,33,30.36,29.88,3,0,8,0.00
2013-5-21,62.1,50.9,44.6,46.0,42.0,37.5,80,72,46,30.00,29.80,11,4,18,0.46
2013-5-22,52.6,47.0,43.9,47.8,42.1,37.1,91,83,76,30.03,29.91,12,6,20,0.91
2013-5-23,57.2,50.8,46.8,50.2,45.9,43.7,90,84,69,30.03,29.97,7,1,11,0.46
2013-5-24,63.7,54.4,48.4,50.6,46.3,41.3,92,76,47,30.12,29.97,13,3,22,0.37
2013-5-25,68.7,59.8,50.9,51.2,44.9,37.5,90,61,33,30.06,29.91,6,1,10,0.00
2013-5-26,68.6,61.3,55.2,54.1,47.1,42.2,88,61,44,30.06,29.97,11,3,23,0.08
2013-5-27,67.6,57.7,53.1,59.0,50.9,43.5,88,78,61,30.00,29.74,12,1,16,0.63
2013-5-28,66.9,59.5,54.1,51.5,46.0,39.7,83,63,40,29.94,29.80,11,3,16,0.04
2013-5-29,66.2,58.1,52.8,52.4,46.7,40.3,87,67,39,30.06,29.65,15,4,24,0.29
2013-5-30,65.5,57.3,50.9,48.7,44.3,40.4,81,63,41,30.24,30.06,10,1,14,0.00
2013-5-31,69.3,60.9,52.2,49.5,43.3,37.2,84,55,33,30.36,30.21,5,0,11,0.00
2013-6-1,74.8,62.7,49.8,49.4,44.6,41.4,78,54,33,30.24,30.03,5,0,10,0.00
2013-6-2,72.4,63.3,56.3,49.0,45.2,41.5,72,53,33,30.12,30.03,6,1,13,0.00
2013-6-3,73.9,62.2,54.2,48.0,44.9,39.7,71,55,30,30.12,30.03,4,0,9,0.00
2013-6-4,83.7,67.4,50.2,50.4,46.1,42.2,76,50,28,30.12,29.97,5,0,10,0.00
2013-6-5,82.7,70.7,57.5,52.3,49.1,43.7,74,49,25,30.09,29.97,4,0,12,0.00
2013-6-6,82.9,69.6,57.9,52.4,48.1,39.0,72,49,25,30.09,29.97,6,0,12,0.00
2013-6-7,78.3,66.9,54.3,49.3,41.7,33.0,70,43,22,30.18,30.03,6,1,13,0.00
2013-6-8,77.5,65.0,54.5,48.3,42.7,36.0,69,48,24,30.21,30.03,4,1,11,0.00
2013-6-9,72.9,62.0,53.5,46.2,42.1,37.1,68,50,31,30.15,29.97,5,1,13,0.00
2013-6-10,70.3,59.4,48.4,42.6,39.5,37.2,72,49,33,30.06,29.88,7,1,13,0.00
2013-6-11,68.7,59.8,55.2,48.2,41.0,36.0,71,51,34,30.15,29.97,8,1,13,0.00
2013-6-12,67.1,59.1,54.5,50.6,45.3,40.6,80,61,41,30.18,30.15,5,0,12,0.00
2013-6-13,66.7,58.3,52.3,53.0,49.2,44.6,87,72,46,30.30,30.15,11,2,15,0.29
2013-6-14,69.3,61.5,54.3,50.4,46.4,41.5,83,60,40,30.30,30.00,5,0,11,0.00
2013-6-15,81.3,66.5,50.4,51.7,47.0,42.9,79,53,29,30.00,29.91,6,0,9,0.00
2013-6-16,73.9,65.1,55.6,49.8,48.1,45.2,75,55,38,30.12,30.00,3,0,7,0.00
2013-6-17,79.2,68.5,57.6,50.5,46.4,40.9,72,47,28,30.15,29.91,9,2,15,0.00
2013-6-18,74.8,64.9,57.0,50.4,44.4,37.1,78,50,26,30.03,29.91,11,3,15,0.58
2013-6-19,70.7,60.4,54.3,54.4,49.0,43.1,84,67,43,30.12,29.97,9,1,12,0.17
2013-6-20,70.3,60.6,54.3,55.9,49.4,43.2,84,68,41,30.15,30.03,11,1,17,0.12
2013-6-21,70.1,62.6,55.9,51.5,46.8,41.8,81,58,37,30.21,30.12,4,0,7,0.00
2013-6-22,78.5,66.4,51.1,51.0,46.9,43.1,81,53,30,30.15,29.85,6,0,9,0.00
2013-6-23,71.5,66.6,62.6,60.8,55.7,49.9,87,68,56,29.85,29.65,6,0,9,0.08
2013-6-24,70.9,63.5,57.9,59.9,52.2,45.9,90,68,44,29.74,29.62,10,2,19,0.29
2013-6-25,70.3,63.6,59.4,60.7,56.5,53.2,88,78,65,29.88,29.68,8,1,13,0.21
2013-6-26,75.2,66.1,59.7,63.2,56.0,49.3,92,72,43,30.06,29.85,8,1,13,0.17
2013-6-27,81.7,71.8,62.2,58.9,55.4,52.9,79,58,39,30.18,30.03,7,1,10,0.00
2013-6-28,90.1,76.3,62.0,62.7,57.7,51.9,84,56,29,30.15,30.03,4,0,9,0.00
2013-6-29,87.1,76.0,64.0,56.9,52.8,49.4,72,46,29,30.15,30.00,4,0,8,0.00
2013-6-30,93.6,79.2,62.8,60.0,57.2,54.8,78,50,29,30.03,29.80,3,0,8,0.00
2013-7-1,90.1,78.5,67.6,60.5,56.9,54.5,68,49,36,30.00,29.91,5,0,10,0.00
2013-7-2,86.5,75.5,64.8,59.3,54.5,47.9,71,50,28,30.09,30.00,6,1,13,0.00
2013-7-3,83.5,71.5,61.3,48.8,44.6,38.7,59,40,21,30.15,30.03,7,1,12,0.00
2013-7-4,75.4,65.8,56.5,49.2,45.7,43.1,70,50,34,30.18,30.03,6,1,11,0.00
2013-7-5,73.6,65.1,59.5,48.7,45.9,43.4,61,50,36,30.09,29.94,4,0,8,0.00
2013-7-6,77.4,65.7,58.1,51.2,48.9,46.4,70,56,38,30.00,29.85,4,0,9,0.00
2013-7-7,78.2,65.9,57.2,53.4,51.4,49.0,79,61,36,29.97,29.85,3,0,8,0.00
2013-7-8,80.2,67.6,59.0,53.9,49.5,46.7,70,54,35,30.12,29.97,6,0,10,0.00
2013-7-9,87.8,73.5,58.6,57.7,52.5,47.6,79,51,26,30.09,29.97,5,0,9,0.00
2013-7-10,79.5,68.5,58.3,50.5,46.6,39.5,68,47,27,30.06,29.91,6,1,11,0.00
2013-7-11,75.3,64.0,52.3,47.1,41.6,38.2,72,46,27,30.12,29.94,6,1,13,0.00
2013-7-12,72.9,63.4,51.1,46.3,43.0,39.7,72,49,33,30.12,30.00,8,1,13,0.00
2013-7-13,80.6,66.8,50.9,47.3,43.6,39.2,73,46,27,30.18,30.03,5,1,12,0.00
2013-7-14,85.6,69.9,54.7,50.5,44.7,37.0,73,44,19,30.12,29.94,5,1,11,0.00
2013-7-15,86.2,70.6,54.0,49.5,44.0,37.0,67,41,25,30.03,29.80,5,0,12,0.00
2013-7-16,90.5,75.9,58.6,50.0,45.6,38.9,73,38,18,30.00,29.80,10,3,20,0.00
2013-7-17,77.0,69.0,63.1,51.2,49.4,47.1,63,50,36,30.21,29.97,8,1,12,0.00
2013-7-18,80.4,67.5,55.9,53.6,50.0,45.5,78,56,30,30.21,30.03,6,0,10,0.00
2013-7-19,81.1,67.2,55.9,54.8,52.2,48.3,79,60,39,30.15,29.97,3,0,9,0.00
2013-7-20,79.3,66.5,59.2,54.3,52.1,49.7,80,61,40,30.09,29.91,2,0,6,0.00
2013-7-21,80.1,66.5,58.8,54.1,51.4,49.2,75,60,36,30.00,29.88,4,0,9,0.00
2013-7-22,81.1,68.0,59.4,54.5,51.7,46.6,81,59,30,30.09,29.94,3,0,10,0.00
2013-7-23,86.7,71.0,57.6,58.0,53.9,50.8,80,58,31,30.06,29.91,2,0,8,0.00
2013-7-24,88.1,73.2,59.2,55.9,52.4,45.3,77,52,23,30.06,29.97,4,0,10,0.00
2013-7-25,87.4,72.4,58.1,53.7,50.2,41.8,76,49,21,30.12,30.00,3,0,10,0.00
2013-7-26,87.0,71.7,57.6,52.0,47.0,37.3,74,45,23,30.18,30.03,7,0,13,0.00
2013-7-27,78.3,65.4,56.7,48.0,44.8,39.1,68,49,31,30.18,30.00,5,-13,11,0.00
2013-7-28,72.9,63.2,56.5,48.2,46.1,44.2,70,55,40,30.09,29.97,6,-22,10,0.00
2013-7-29,76.3,66.6,58.6,50.7,47.8,44.8,70,52,34,30.00,29.91,4,-33,8,0.00
2013-7-30,78.3,67.1,56.1,53.4,49.3,43.4,78,55,32,30.15,30.03,3,-16,6,0.00
2013-7-31,75.4,67.6,60.1,57.1,52.9,50.3,71,60,44,30.12,30.00,3,-21,5,0.00
2013-8-1,62.2,60.9,59.9,51.6,51.0,50.7,74,70,67,30.09,30.06,0,-83,1,0.00
2013-8-4,83.9,76.5,70.4,54.9,53.6,49.9,57,46,31,29.97,29.88,1,0,6,0.00
2013-8-5,86.9,73.6,61.3,57.5,54.2,49.8,80,53,28,30.03,29.88,3,0,9,0.00
2013-8-6,88.4,73.5,59.4,53.3,48.2,36.0,74,45,19,30.03,29.88,2,0,8,0.00
2013-8-7,87.2,72.1,58.3,52.9,48.1,44.6,67,45,26,30.06,29.91,8,1,13,0.00
2013-8-8,81.3,69.5,62.7,55.4,52.9,47.5,72,57,40,30.09,29.91,4,0,10,0.00
2013-8-9,78.4,68.9,61.3,58.9,53.1,49.8,71,58,41,29.97,29.85,7,0,9,0.00
2013-8-10,79.7,68.9,62.1,59.5,57.4,53.9,82,68,42,30.03,29.91,5,0,10,0.00
2013-8-11,74.6,70.9,60.0,58.0,52.5,51.3,98,53,45,30.06,29.92,10,0,18,0.00
2013-8-12,78.3,68.7,61.0,55.9,52.1,47.9,79,58,36,30.09,29.97,4,0,10,0.00
2013-8-13,82.9,69.1,56.0,54.3,47.9,38.7,78,50,21,30.12,29.91,4,0,9,0.00
2013-8-14,83.8,70.9,59.7,54.2,48.8,42.7,69,48,25,30.00,29.91,3,0,6,0.00
2013-8-15,80.9,72.1,65.1,62.7,56.6,52.1,71,59,42,30.00,29.91,6,0,8,0.00
2013-8-16,82.9,72.7,66.6,64.0,59.8,52.1,89,66,42,30.03,29.94,2,0,6,0.00
2013-8-17,81.3,71.0,59.9,56.2,51.2,48.1,76,51,33,30.09,30.00,5,0,10,0.00
2013-8-18,81.0,71.0,64.3,55.9,52.4,46.0,71,54,33,30.15,30.03,5,0,10,0.00
2013-8-19,81.2,69.4,58.8,57.5,51.3,45.6,79,56,31,30.15,30.03,8,1,15,0.00
2013-8-20,80.6,68.6,58.0,53.3,48.1,40.0,72,50,30,30.15,29.97,4,0,10,0.00
2013-8-21,88.3,70.7,55.4,52.0,48.6,44.7,74,49,28,30.03,29.83,4,0,8,0.00
2013-8-22,79.3,70.1,58.6,61.8,52.3,49.7,78,55,37,29.91,29.83,4,0,7,0.00
2013-8-23,74.7,68.0,62.6,61.5,55.6,50.9,81,65,47,29.97,29.85,7,1,10,0.04
2013-8-24,77.7,68.2,61.9,56.5,51.1,43.3,80,57,32,29.91,29.83,5,0,8,0.00
2013-8-25,71.1,64.0,56.8,59.6,53.9,46.5,84,70,52,29.94,29.88,4,0,6,0.08
2013-8-26,79.6,69.0,63.1,61.2,54.5,43.6,90,64,30,30.00,29.88,10,1,17,0.00
2013-8-27,82.4,71.0,62.2,57.6,53.5,51.2,72,56,35,30.00,29.80,4,-50,10,0.00
2013-8-28,82.9,72.6,63.9,61.4,56.1,51.9,84,58,37,29.91,29.83,5,-7,10,0.04
2013-8-29,79.8,71.3,66.7,66.8,62.0,56.3,92,74,45,30.06,29.83,14,-26,20,0.21
2013-8-30,79.0,71.1,65.1,65.1,58.7,50.7,91,68,38,30.15,30.03,5,0,10,0.00
2013-8-31,85.4,73.3,57.7,57.9,54.1,50.5,86,54,31,30.06,29.80,3,0,8,0.00
2013-9-1,81.5,71.2,60.8,56.2,51.8,45.2,78,53,30,29.91,29.80,8,0,11,0.00
2013-9-2,77.7,71.2,64.4,56.4,52.4,47.1,69,53,37,29.94,29.85,2,0,11,0.00
2013-9-3,77.4,69.6,63.0,60.9,54.8,49.0,87,61,37,30.00,29.91,5,0,8,0.04
2013-9-4,73.0,67.2,61.3,59.3,55.9,53.7,79,68,53,30.09,29.97,3,0,6,0.00
2013-9-5,69.3,64.7,59.8,59.5,57.6,55.1,89,78,67,30.06,29.94,15,1,29,0.08
2013-9-6,69.6,63.9,59.5,61.3,58.2,55.0,96,83,62,30.15,30.03,11,0,20,1.12
2013-9-7,78.1,66.0,55.3,58.5,56.0,52.5,94,72,45,30.15,29.94,3,0,8,0.00
2013-9-8,81.3,69.0,59.0,61.7,57.1,53.2,94,69,40,30.09,29.97,5,0,8,0.00
2013-9-9,79.9,68.5,61.6,60.9,58.8,56.6,92,73,46,30.03,29.91,2,0,8,0.00
2013-9-10,90.3,74.1,62.6,63.0,55.0,40.4,93,60,20,29.94,29.77,9,2,14,0.00
2013-9-11,94.1,82.0,70.0,54.6,47.3,42.0,53,31,19,29.94,29.80,12,4,22,0.00
2013-9-12,79.9,70.2,61.5,59.2,56.2,52.9,78,62,43,30.00,29.88,4,0,8,0.00
2013-9-13,73.4,66.6,61.9,59.5,57.8,56.1,87,74,59,29.97,29.83,5,0,8,0.00
2013-9-14,77.2,68.4,63.1,61.9,59.2,56.4,91,74,51,29.88,29.68,3,0,8,0.00
2013-9-15,68.5,65.0,62.4,61.4,59.3,57.2,90,82,68,29.88,29.71,6,2,9,0.00
2013-9-16,71.4,64.7,60.8,57.7,55.8,53.4,84,73,56,30.00,29.88,9,3,13,0.00
2013-9-17,68.5,62.1,57.0,57.3,50.9,44.6,87,68,42,30.00,29.85,4,1,9,0.00
2013-9-18,70.4,61.5,54.3,53.7,48.4,42.6,83,64,38,30.12,29.97,6,1,9,0.00
2013-9-19,77.2,63.4,51.4,46.2,42.7,38.6,76,50,26,30.03,29.77,13,4,26,0.00
2013-9-20,74.9,62.6,52.4,51.8,47.1,43.6,73,58,41,29.80,29.65,9,1,14,0.00
2013-9-21,66.1,61.7,58.3,57.6,54.1,51.6,90,76,62,29.80,29.68,4,0,8,0.25
2013-9-22,62.6,58.6,56.1,56.7,53.5,46.1,91,84,54,29.88,29.68,18,4,33,0.25
2013-9-23,64.4,58.7,55.4,56.7,54.2,52.9,94,85,70,30.00,29.85,10,2,15,0.25
2013-9-24,63.9,56.3,52.3,55.4,52.0,46.9,97,86,55,30.00,29.85,8,1,13,0.33
2013-9-25,60.7,54.7,50.2,51.7,48.7,45.3,93,81,64,30.03,29.85,6,0,14,0.08
2013-9-26,64.8,56.7,50.2,51.2,47.4,43.1,90,73,45,30.18,30.03,6,0,8,0.00
2013-9-27,59.1,55.1,51.3,54.7,49.7,46.2,92,82,74,30.18,29.91,7,1,15,0.21
2013-9-28,66.0,59.6,53.8,58.8,55.9,50.9,97,88,70,29.91,29.50,17,8,34,1.00
2013-9-29,58.1,55.4,53.2,56.9,52.6,49.3,96,90,83,29.71,29.35,18,6,28,0.87
2013-9-30,60.9,54.5,52.0,54.7,49.0,45.4,90,82,72,30.00,29.62,16,7,27,0.45
2013-10-1,60.4,52.8,47.0,52.4,48.2,43.4,96,85,65,30.21,29.97,10,1,18,0.50
2013-10-2,56.3,51.0,45.3,48.5,45.4,43.0,93,81,66,30.18,30.09,5,1,12,0.33
2013-10-3,57.3,51.2,44.6,49.3,45.6,40.9,94,82,58,30.45,30.18,2,0,6,0.00
2013-10-4,65.7,54.0,41.4,46.0,40.5,37.3,93,64,38,30.45,30.33,9,3,17,0.00
2013-10-5,67.8,59.2,50.9,44.0,37.7,35.3,71,46,33,30.36,30.15,13,5,23,0.00
2013-10-6,72.5,58.2,47.3,46.7,41.7,36.2,77,57,27,30.15,29.97,10,1,17,0.00
2013-10-7,63.2,56.7,52.8,52.5,46.1,39.9,90,69,47,30.15,29.97,10,2,17,0.09
2013-10-8,56.6,51.9,46.4,52.8,46.8,42.6,90,83,69,30.15,29.97,8,1,15,0.24
2013-10-9,59.2,49.8,43.9,46.0,42.8,39.7,92,78,51,30.12,30.00,3,0,7,0.00
2013-10-10,61.2,53.3,46.8,49.4,45.4,41.8,87,76,50,30.09,29.94,6,0,8,0.00
2013-10-11,59.3,54.2,50.7,51.1,47.1,42.8,93,78,56,30.15,30.09,1,0,4,0.00
2013-10-12,57.6,51.9,45.3,50.3,46.3,41.3,91,82,61,30.18,30.06,2,0,6,0.04
2013-10-13,60.1,50.2,43.7,46.9,43.3,40.0,90,78,53,30.30,30.18,2,0,7,0.00
2013-10-14,63.9,52.2,41.2,46.9,40.2,33.8,94,67,36,30.36,30.27,8,1,15,0.00
2013-10-15,63.9,56.5,49.1,35.2,33.3,31.1,57,42,33,30.36,30.15,14,5,24,0.00
2013-10-16,62.4,52.0,43.3,42.2,38.6,34.5,76,61,44,30.18,30.09,2,0,6,0.00
2013-10-17,63.3,53.3,44.2,47.8,42.0,34.0,90,68,39,30.27,30.15,11,2,24,0.00
2013-10-18,66.3,60.3,55.5,36.2,34.0,32.3,42,37,32,30.18,30.06,14,9,30,0.00
2013-10-19,64.6,53.6,42.8,42.0,38.9,33.5,74,59,39,30.18,30.09,9,0,14,0.00
2013-10-20,60.3,50.4,43.7,47.9,43.6,37.6,91,78,61,30.18,30.03,1,0,5,0.00
2013-10-21,72.5,60.2,45.9,46.7,41.8,37.1,97,58,31,30.12,29.97,16,6,30,0.00
2013-10-22,72.1,66.7,61.9,40.9,38.7,36.3,41,36,32,30.06,29.94,15,10,29,0.00
2013-10-23,70.3,64.0,54.1,42.4,40.8,39.5,64,43,34,30.00,29.91,13,7,27,0.00
2013-10-24,64.6,57.0,48.6,49.0,45.0,40.1,86,65,44,30.12,29.97,8,0,19,0.00
2013-10-25,55.6,52.7,50.1,49.9,48.3,43.9,93,85,75,30.27,30.12,1,0,6,0.00
2013-10-26,60.0,52.9,48.4,49.8,47.3,43.6,91,82,68,30.30,29.92,10,0,18,3.29
2013-10-27,60.0,51.0,48.1,58.0,44.5,41.9,98,79,60,30.18,29.80,10,-10,18,3.29
2013-10-28,57.4,50.8,41.2,42.5,36.8,33.9,83,60,42,29.94,29.83,15,4,27,0.00
2013-10-29,56.5,44.7,34.5,37.8,35.5,34.1,101,73,46,30.06,29.94,5,0,10,0.00
2013-10-30,56.8,45.8,35.2,35.7,35.0,33.7,98,69,45,30.21,30.06,2,0,6,0.00
2013-10-31,58.5,53.3,49.3,41.1,37.4,34.7,64,55,43,30.27,30.15,4,0,9,0.05
2013-11-1,58.6,53.5,49.3,44.5,40.6,-99.9,70,63,55,30.30,29.91,4,-64,7,0.08
2013-11-2,57.5,51.9,46.4,44.0,40.3,-99.9,76,66,50,30.06,29.74,18,5,27,0.75
2013-11-3,51.6,47.1,44.2,40.8,39.3,37.3,81,74,58,30.15,30.03,9,3,14,0.24
2013-11-4,49.8,47.7,45.9,42.8,39.6,37.8,81,73,65,30.21,30.12,2,0,6,0.37
2013-11-5,54.9,51.2,47.3,42.9,41.7,39.9,81,70,60,30.27,30.09,8,1,15,0.26
2013-11-6,55.0,52.0,50.3,43.9,43.1,42.5,78,72,64,30.30,30.12,7,1,16,0.41
2013-11-7,56.1,51.5,49.5,44.2,43.4,42.0,79,74,63,30.12,29.88,14,5,24,0.29
2013-11-8,54.1,50.1,45.9,44.1,43.0,42.0,93,77,64,30.21,30.12,9,2,14,0.00
2013-11-9,51.9,48.7,44.4,43.2,41.5,39.4,95,77,63,30.12,30.03,11,3,20,0.00
2013-11-10,57.9,52.9,49.8,43.9,41.4,39.5,71,65,56,30.09,30.03,17,2,34,0.00
2013-11-11,55.0,52.2,50.4,40.0,37.4,-99.9,66,59,54,30.18,30.03,20,14,37,0.00
2013-11-12,56.7,53.1,50.4,43.0,39.2,37.3,68,59,51,30.42,30.09,15,2,28,0.21
2013-11-13,57.0,51.8,44.7,44.2,42.4,-99.9,93,72,59,30.50,30.27,3,0,8,0.00
2013-11-14,51.8,48.0,44.9,42.8,40.9,-99.9,92,79,69,30.30,30.09,6,-3,10,0.04
2013-11-15,48.9,46.7,44.8,42.6,40.8,39.3,88,80,71,30.12,29.53,18,6,34,0.12
2013-11-16,50.2,47.5,45.5,41.7,40.3,39.6,85,76,68,29.85,29.53,16,-8,27,0.21
2013-11-17,56.2,51.1,47.1,43.4,41.5,39.9,80,70,60,30.00,29.85,15,6,24,0.00
2013-11-18,55.9,52.8,51.4,43.7,42.4,41.3,73,68,58,30.00,29.71,15,-12,27,0.16
2013-11-19,54.0,49.5,39.8,43.9,41.6,-99.9,104,74,66,30.03,29.68,13,3,23,0.37
2013-11-20,46.4,38.4,33.1,42.3,38.2,-99.9,104,50,75,30.42,30.03,12,3,20,0.00
2013-11-21,42.4,38.1,34.9,36.0,33.1,31.1,102,83,64,30.59,30.39,18,11,32,0.00
2013-11-22,41.0,38.0,34.8,31.9,29.7,26.9,88,73,57,30.59,30.42,24,17,42,0.08
2013-11-23,44.1,40.0,36.7,29.7,28.8,27.6,74,64,53,30.45,30.15,23,17,41,0.00
2013-11-24,48.9,41.6,36.7,33.4,29.7,28.4,74,63,45,30.30,30.15,22,10,42,0.00
2013-11-25,47.1,42.3,38.5,35.4,34.3,33.3,84,73,60,30.36,30.27,17,9,33,0.00
2013-11-26,50.7,44.3,39.6,36.1,34.6,33.5,84,69,51,30.30,30.09,13,6,33,0.00
2013-11-27,46.0,42.9,40.0,35.1,33.4,29.7,80,69,54,30.09,29.97,20,14,39,0.00
2013-11-28,49.7,43.6,39.5,35.6,33.6,-99.9,83,70,54,30.24,30.03,22,7,36,0.00
2013-11-29,46.1,40.5,33.4,36.6,35.5,34.6,104,68,66,30.39,30.24,6,0,9,0.00
2013-11-30,52.2,47.2,42.8,37.2,36.0,-99.9,80,67,54,30.42,30.24,2,0,6,0.21
2013-12-1,55.9,53.4,48.4,39.9,37.2,35.8,63,54,47,30.24,29.91,17,10,29,1.12
2013-12-2,52.0,44.2,38.7,40.4,38.6,37.2,98,81,61,30.09,29.88,10,1,14,0.17
2013-12-3,41.3,37.4,29.8,38.9,36.4,33.3,103,78,83,30.30,30.03,10,2,20,0.00
2013-12-4,35.2,31.4,28.5,36.9,34.5,32.6,104,23,91,30.36,30.27,10,5,18,0.00
2013-12-5,30.4,27.3,24.8,35.2,33.9,31.9,0,0,100,30.30,30.18,15,9,27,0.00
2013-12-6,27.9,25.4,22.8,35.4,31.5,30.3,0,0,100,30.18,30.00,20,12,34,0.00
2013-12-7,26.1,22.7,19.2,33.1,30.8,25.4,104,6,100,30.45,30.12,14,8,26,0.00
2013-12-8,27.4,21.1,14.9,33.1,31.7,30.3,0,0,100,30.62,30.45,7,1,14,0.00
2013-12-9,30.6,24.6,16.0,31.7,30.6,-99.9,104,36,100,30.62,30.50,4,0,7,0.00
2013-12-10,37.2,32.1,27.9,34.5,29.9,-99.9,104,70,79,30.53,30.39,2,0,7,0.00
2013-12-11,40.8,35.2,29.3,35.9,31.6,30.3,104,79,68,30.42,30.21,11,4,28,0.00
2013-12-12,40.3,36.3,32.2,35.3,32.1,30.3,103,83,69,30.24,30.12,8,2,17,0.12
2013-12-13,46.0,42.1,37.8,35.7,34.7,33.9,91,75,63,30.45,30.21,0,0,1,0.12
2013-12-14,43.5,40.6,37.9,35.5,34.0,-99.9,89,79,69,30.47,30.39,6,0,8,0.00
2013-12-15,46.9,42.9,38.5,35.5,35.0,34.4,86,74,62,30.50,30.42,5,0,7,0.04
2013-12-16,44.6,43.1,40.8,36.4,35.5,34.9,81,74,68,30.47,30.27,3,0,6,0.00
2013-12-17,41.3,38.0,35.5,36.1,35.0,-99.9,102,90,80,30.27,30.18,6,0,8,0.00
2013-12-18,43.3,39.3,33.8,36.9,33.3,-99.9,104,76,70,30.21,30.03,2,0,6,0.09
2013-12-19,39.6,35.5,32.7,36.4,35.3,34.4,104,69,83,30.36,30.12,3,0,7,0.00
2013-12-20,46.6,38.2,34.0,35.5,34.4,-99.9,104,89,64,30.24,29.85,14,2,20,0.21
2013-12-21,52.1,48.3,46.6,38.1,36.2,35.3,70,63,54,30.24,29.94,7,1,11,0.12
2013-12-22,53.1,49.7,46.8,38.1,36.0,-99.9,70,62,56,30.39,30.21,8,1,13,0.04
2013-12-23,51.8,47.4,39.2,39.6,37.7,-99.9,99,72,58,30.53,30.27,11,2,18,0.46
2013-12-24,39.7,37.7,35.1,39.3,37.9,36.5,104,71,89,30.62,30.47,4,0,8,0.00
2013-12-25,41.3,36.6,33.1,38.0,36.8,35.7,104,53,81,30.50,30.39,2,0,6,0.00
2013-12-26,42.3,35.4,32.2,38.1,36.6,35.9,104,30,80,30.42,30.24,4,0,8,0.00
2013-12-27,41.1,36.7,32.2,38.5,35.8,-99.9,104,51,81,30.42,30.21,7,0,8,0.00
2013-12-28,45.6,41.8,38.7,37.4,36.2,-99.9,91,82,70,30.50,30.42,1,0,4,0.00
2013-12-29,40.1,37.9,35.6,37.9,36.6,35.9,104,85,88,30.47,30.27,2,0,6,0.00
2013-12-30,43.6,39.7,36.7,38.5,35.9,-99.9,104,88,76,30.30,30.15,7,1,9,0.00
2013-12-31,50.0,43.6,37.6,37.5,36.5,36.0,97,77,60,30.36,30.24,2,0,6,0.00
2014-1-1,44.5,41.6,38.1,38.4,35.5,-99.9,99,82,69,30.39,30.27,7,0,14,0.00
2014-1-2,49.3,42.9,37.2,38.2,34.2,-99.9,97,76,58,30.27,30.03,10,1,20,0.25